Regional Weather Roundup
Issued by NWS Nashville, TN

Home | Current Version | Previous Version | Text Only | Print | Product List | Glossary On
Versions: 1 2 3 4 5 6 7 8 9 10 11 12 13 14 15 16 17 18 19 20 21 22 23 24 25 26 27 28 29 30 31 32 33 34 35 36 37 38 39 40 41 42 43 44 45 46 47 48 49 50
000
ASUS44 KOHX 042210
RWROHX
MIDDLE TENNESSEE HOURLY WEATHER ROUNDUP
NATIONAL WEATHER SERVICE NASHVILLE TN
500 PM CDT MON MAY 04 2015

NOTE: "FAIR" INDICATES FEW OR NO CLOUDS BELOW 12,000 FEET WITH
NO SIGNIFICANT WEATHER AND/OR OBSTRUCTIONS TO VISIBILITY.

* THESE REPORTS ARE NOT UNDER NWS QUALITY CONTROL AND MAY NOT
  REPORT WEATHER SUCH AS PRECIPITATION AND FOG.


TNZ005>011-023>034-057-059-062>066-078-080-042300
...NORTHERN MIDDLE TENNESSEE...

CITY           SKY/WX    TMP DP  RH WIND       PRES   REMARKS
CLARKSVILLE    MOSUNNY   81  56  42 SW9       30.17F
CROSSVILLE     MOSUNNY   77  47  34 VRB5      30.26S
LIVINGSTON     SUNNY     79  50  36 SW5       30.23
NASHVILLE      PTSUNNY   82  51  34 SW8       30.19S
PORTLAND       MOSUNNY   81  54  39 S7        30.19R
ROCKWOOD       SUNNY     78  50  37 S10       30.25S
SMYRNA         PTSUNNY   81  55  40 S6        30.20F
SPARTA         SUNNY     81  54  39 SW5       30.22S
$$
TNZ056-058-060-061-075>077-079-093>097-042300
...SOUTHERN MIDDLE TENNESSEE...

CITY           SKY/WX    TMP DP  RH WIND       PRES   REMARKS
COLUMBIA       SUNNY     79  54  41 S6        30.18F
LEWISBURG      MOSUNNY   82  51  34 S7        30.20F
MCMINNVILLE    PTSUNNY   81  54  39 SW6       30.22F
SHELBYVILLE      N/A     81  55  41 S9        30.22S
TULLAHOMA      SUNNY     79  48  34 S6        30.23F
WINCHESTER     PTSUNNY   81  54  39 CALM      30.22F
$$


...KEY TO REMARKS...
VSB - VISIBILITY IN MILES
WCI - WIND CHILL INDEX
HX  - HEAT INDEX



USA.gov is the U.S. government's official web portal to all federal, state and local government web resources and services.